Weather History for Covington, KY

Change the Weather History Date:

Sunday, February 17, 2013

  Actual Average Record
Temperature  
Mean Temperature 23 °F 35 °F  
Max Temperature 32 °F 43 °F 70 °F (1911)
Min Temperature 13 °F 26 °F -4 °F (1958)
Degree Days  
Heating Degree Days 42 30  
Month to date heating degree days 555 542  
Since 1 July heating degree days 3383 3514  
Cooling Degree Days 0 0  
Month to date cooling degree days 0 0  
Year to date cooling degree days 0 0  
Moisture  
Dew Point 8 °F    
Average Humidity 57    
Maximum Humidity 88    
Minimum Humidity 26    
Precipitation  
Precipitation T in 0.09 in 1.02 in (1976)
Month to date precipitation 0.51 1.73  
Year to date precipitation 3.90 4.73  
Snow  
Snow T in 0.30 in 10.80 in (1910)
Month to date snowfall 5.6 4.4  
Since 1 July snowfall 15.4 16.5  
Snow Depth 0.00 in    
Sea Level Pressure  
Sea Level Pressure 30.19 in    
Wind  
Wind Speed 5 mph (WNW)    
Max Wind Speed 12 mph    
Max Gust Speed 15 mph    
Visibility 10 miles    
Events Snow    
T = Trace of Precipitation, MM = Missing Value Source: NWS Daily Summary

Daily Weather History Graph

Daily Weather History Graph

Search for Another Location

Airport:

Trip Planner

Search our weather history database for the weather conditions in past years. The results will help you decide how hot, cold, wet, or windy it might be!

Date:

Astronomy

Feb. 17, 2013 Rise Set
Actual Time 7:27 AM EST 6:18 PM EST
Civil Twilight 7:00 AM EST 6:45 PM EST
Nautical Twilight 6:28 AM EST 7:17 PM EST
Astronomical Twilight 5:57 AM EST 7:48 PM EST
Moon 11:23 AM EST (2/17) 1:09 AM EST (2/17)
Length of Visible Light 11h 45m
Length of Day
10h 51m
Waxing Crescent, 49% of the Moon is Illuminated
Feb 17
Waxing Crescent
Feb 17
First Quarter
Feb 25
Full
Mar 4
Last Quarter
Mar 11
New

Hourly Weather History & Observations

Time (EST) Temp. Windchill Dew Point Humidity Pressure Visibility Wind Dir Wind Speed Gust Speed Precip Events Conditions
12:52 AM 19.9 °F 8.6 °F 10.9 °F 68% 30.14 in 9.0 mi WNW 10.4 mph - N/A   Overcast
1:33 AM 19.4 °F 9.5 °F 12.2 °F 74% 30.11 in 4.0 mi WNW 8.1 mph - 0.00 in Snow Light Snow
1:43 AM 19.4 °F 10.4 °F 12.2 °F 74% 30.11 in 5.0 mi WNW 6.9 mph - 0.00 in Snow Light Snow
1:52 AM 19.9 °F 12.1 °F 12.9 °F 74% 30.14 in 9.0 mi WNW 5.8 mph - 0.00 in   Overcast
2:28 AM 19.4 °F 12.8 °F 12.2 °F 74% 30.11 in 10.0 mi WNW 4.6 mph - 0.00 in   Overcast
2:43 AM 17.6 °F 10.7 °F 12.2 °F 79% 30.11 in 10.0 mi West 4.6 mph - 0.00 in   Mostly Cloudy
2:52 AM 18.0 °F 12.7 °F 12.9 °F 81% 30.14 in 10.0 mi West 3.5 mph - 0.00 in   Mostly Cloudy
3:52 AM 18.0 °F 9.8 °F 14.0 °F 84% 30.14 in 9.0 mi NW 5.8 mph - 0.00 in   Mostly Cloudy
4:52 AM 16.0 °F 8.8 °F 12.9 °F 88% 30.16 in 10.0 mi NW 4.6 mph - N/A   Mostly Cloudy
5:52 AM 16.0 °F 6.3 °F 12.0 °F 84% 30.17 in 10.0 mi NNW 6.9 mph - N/A   Clear
6:52 AM 12.9 °F 5.2 °F 9.0 °F 84% 30.20 in 10.0 mi West 4.6 mph - N/A   Clear
7:52 AM 16.0 °F 8.8 °F 10.0 °F 77% 30.22 in 10.0 mi NW 4.6 mph - N/A   Clear
8:52 AM 18.0 °F 5.4 °F 10.0 °F 71% 30.23 in 10.0 mi NW 11.5 mph - N/A   Clear
9:52 AM 19.9 °F 13.4 °F 7.0 °F 57% 30.26 in 10.0 mi WNW 4.6 mph - N/A   Partly Cloudy
10:52 AM 23.0 °F 15.8 °F 7.0 °F 50% 30.26 in 10.0 mi WNW 5.8 mph - N/A   Partly Cloudy
11:52 AM 26.1 °F 20.5 °F 6.1 °F 43% 30.26 in 10.0 mi West 4.6 mph - N/A   Partly Cloudy
12:52 PM 26.1 °F 20.5 °F 6.1 °F 43% 30.25 in 10.0 mi Variable 4.6 mph - N/A   Partly Cloudy
1:52 PM 28.0 °F - 3.9 °F 36% 30.23 in 10.0 mi Calm Calm - N/A   Partly Cloudy
2:52 PM 30.0 °F - 1.9 °F 30% 30.22 in 10.0 mi Calm Calm - N/A   Partly Cloudy
3:52 PM 30.9 °F 25.2 °F 1.9 °F 29% 30.22 in 10.0 mi WNW 5.8 mph - N/A   Partly Cloudy
4:52 PM 32.0 °F 25.6 °F 1.0 °F 27% 30.21 in 10.0 mi West 6.9 mph - N/A   Partly Cloudy
5:52 PM 30.2 °F 25.4 °F 1.4 °F 29% 30.19 in 10.0 mi WSW 4.6 mph - N/A   Partly Cloudy
6:52 PM 28.0 °F 24.2 °F 3.9 °F 36% 30.23 in 10.0 mi SSE 3.5 mph - N/A   Partly Cloudy
7:52 PM 27.0 °F 23.0 °F 5.0 °F 39% 30.22 in 10.0 mi SE 3.5 mph - N/A   Partly Cloudy
8:52 PM 21.9 °F 17.2 °F 8.1 °F 55% 30.22 in 10.0 mi SE 3.5 mph - N/A   Clear
9:52 PM 25.0 °F 20.7 °F 8.1 °F 49% 30.22 in 10.0 mi SE 3.5 mph - N/A   Clear